Location: Agape Baptist Church
(35.1910°N, 89.8909°W)
Time: 02:24:39
(UTC+00:00)

Daily predictions for brighter satellites

Satellite Brightness Start Highest point End
(mag) Time Altitude Azimuth Time Altitude Azimuth Time Altitude Azimuth
SAR-Lupe-1 3.9 00:05:42 10° SSE 00:09:14 71° ENE 00:12:47 10° N
Radarsat Rocket 4.4 00:04:43 10° SE 00:10:16 38° ENE 00:15:36 10° N
Okean 1-7 2.9 00:07:32 10° S 00:11:38 87° W 00:15:46 10° N
Cosmos 1697 Rocket 2.7 00:09:47 10° NNW 00:15:29 89° ENE 00:21:08 10° SSE
Cosmos 1605 Rocket 4.2 00:10:25 10° N 00:16:31 47° E 00:22:30 10° SSE
ARIANE 5 R/B 3.5 00:15:45 10° S 00:20:47 51° W 00:25:51 10° NNW
IRS-P3 4.3 00:18:06 10° S 00:23:23 76° WSW 00:28:43 10° NNW
Cosmos 2082 Rocket 2.1 00:18:33 10° S 00:24:06 70° ESE 00:29:42 10° NNE
SJ-7 4.4 00:21:38 10° SSE 00:25:14 45° ENE 00:28:50 10° N
SAR-Lupe-4 4.0 00:21:58 10° S 00:25:30 63° WSW 00:29:03 10° NNW
Milstar 3 4.2 00:23:39 10° WSW 00:31:50 59° SSE 00:43:32 17° E
Cosmos 1703 Rocket 3.6 00:28:12 10° SSE 00:32:21 50° E 00:36:30 10° NNE
Cosmos 1934 Rocket 4.4 00:28:24 10° NNW 00:34:35 67° W 00:40:49 10° S
COSMO-SKYMED 1 2.7 00:31:40 10° N 00:35:46 70° WNW 00:39:50 10° SSW
Cosmos 1328 4.2 00:33:27 10° SSW 00:36:54 54° W 00:40:22 10° N
ATLAS CENTAUR R/B 0.5 00:36:12 10° SSW 00:39:15 79° WNW 00:40:31 32° NNE
Resurs 01 Rocket 2.0 00:35:44 10° SE 00:39:45 38° ENE 00:43:49 10° N
Cosmos 2228 Rocket 4.1 00:35:45 10° SSW 00:40:03 48° W 00:44:20 10° N
DMSP B5D1-3 4.4 00:35:13 10° NNE 00:40:16 64° ESE 00:45:18 10° S
Resurs 1-3 3.8 00:41:14 10° S 00:45:30 69° W 00:49:48 10° NNW
Hubble Space Telescope 2.2 00:43:28 10° SW 00:46:29 23° S 00:47:31 20° SE
Cosmos 540 Rocket 3.3 00:43:02 10° SSW 00:48:07 87° ESE 00:52:52 12° NNE
COSMOS 2406 3.2 00:44:04 10° S 00:49:35 56° ESE 00:52:54 24° NE
CZ-2D R/B 3.7 00:47:41 10° S 00:51:27 61° W 00:55:14 10° NNW
OceanSat 1 rocket 4.5 00:48:56 10° SSE 00:53:37 75° ENE 00:58:24 10° N
YAOGAN 1 3.2 00:49:31 10° S 00:53:41 56° W 00:57:53 10° NNW
Meteor 1-24 Rocket 4.2 00:48:39 10° SSW 00:54:18 66° W 01:00:11 10° N
PSLV R/B 3.4 00:50:55 10° SSE 00:55:04 84° WSW 00:59:15 10° NNW
Cosmos 1503 Rocket 3.9 00:52:42 10° NNW 00:57:58 74° ENE 01:03:15 10° SSE
Cosmos 1763 Rocket 3.8 00:53:50 10° SSW 00:58:51 62° WNW 01:03:52 10° N
USA 59 Rocket 2.8 01:00:54 10° WNW 01:04:18 22° WSW 01:08:37 10° SSW
Cosmos 44 3.6 01:06:27 10° SW 01:10:59 60° WNW 01:13:11 31° N
Cosmos 1908 Rocket 3.7 01:09:58 10° N 01:14:20 73° W 01:18:43 10° S
Helios 1A Rocket 3.5 01:17:51 41° WNW 01:17:57 42° WNW 01:21:03 10° SW
Cosmos 220 Rocket 4.0 01:13:49 10° SSW 01:17:27 67° S 01:17:27 67° S
Cosmos 1153 Rocket 4.4 01:12:01 10° N 01:18:19 86° E 01:24:29 10° S
NOSS 3-1 (A) 4.1 01:10:49 10° NNW 01:18:35 78° ENE 01:27:57 10° SE
CARTOSAT-1 4.5 01:17:40 10° S 01:21:42 46° W 01:25:45 10° NNW
ATLAS 2AS CENTAUR R/B 2.6 01:14:36 10° SSW 01:21:42 81° ESE 01:24:25 41° NE
Cosmos 2100 Rocket 4.0 01:15:56 10° N 01:22:08 56° E 01:28:14 10° SSE
USA 215 3.1 01:24:10 50° ENE 01:26:01 76° SE 01:32:33 10° SW
Meteor 2-21 Rocket 4.3 01:23:47 10° S 01:29:56 80° E 01:32:37 36° NNE
Meteor 2-16 Rocket 4.2 01:28:33 10° S 01:34:32 74° ESE 01:34:32 74° ESE
DELTA 2 R/B (1) 3.5 01:30:56 10° WNW 01:36:22 84° WSW 01:36:22 84° WSW
Cosmos 1354 Rocket 4.2 01:33:17 10° NNW 01:38:32 68° WSW 01:40:02 45° S
Cosmos 1980 Rocket 3.5 01:34:05 10° NW 01:39:14 39° WSW 01:44:24 10° S
GP-B 4.2 01:36:51 10° SSW 01:40:58 42° W 01:43:27 21° NNW
Cosmos 2333 Rocket 4.5 01:37:39 10° N 01:38:01 12° N 01:38:01 12° N
Cosmos 2173 Rocket 4.0 01:38:00 10° N 01:51:02 - S 01:43:36 70° NNE
Cosmos 2123 Rocket 4.0 01:44:08 10° S 01:49:43 72° S 01:49:43 72° S
Cosmos 2369 4.1 01:47:33 10° NNW 01:53:05 58° WSW 01:53:37 56° SW
Resurs 01 Rocket 4.4 02:13:40 10° SW 02:16:14 15° W 02:18:48 10° WNW
USA 215 4.2 09:48:05 10° SE 09:52:03 40° SE 09:52:03 40° SE
CZ-3C R/B 4.1 10:04:17 21° S 10:05:27 22° SSE 10:18:36 10° ESE
Cosmos 2369 Rocket 4.0 10:10:23 10° SSE 10:15:06 28° ESE 10:19:52 10° NE
CENTAUR R/B 3.4 10:31:20 34° NNE 10:31:20 34° NNE 10:35:06 10° NNE
NOSS 3-2 (A) 3.8 10:29:58 44° ESE 10:30:01 44° ESE 10:35:05 10° NE
Atlas Centaur 2 3.4 10:36:50 24° SSE 10:36:50 24° SSE 10:39:27 10° SE
ATLAS 2AS CENTAUR R/B 2.5 10:47:27 64° NW 10:48:36 81° WSW 10:55:23 10° SSE
SJ 16-02 2.6 10:51:49 31° NNE 10:51:49 31° NNE 10:54:09 10° NNE
Tiangong 0.8 10:54:12 14° NE 10:54:12 14° NE 10:54:50 10° NE
FengYun 1-2 T 4.1 10:51:34 10° N 11:04:39 - SSW 10:56:38 67° NW
Cosmos 371 Rocket 3.3 10:56:30 48° S 10:57:49 78° ESE 11:02:37 10° NNE
Cosmos 304 Rocket 3.6 11:02:11 79° SW 11:02:26 86° WNW 11:07:13 10° NNE
Cosmos 2082 Rocket 2.3 11:05:38 52° WSW 11:05:38 52° WSW 11:10:49 10° S
Cosmos 1862 Rocket 3.8 11:04:57 27° N 11:07:12 65° E 11:11:26 10° SSE
Cosmos 1339 Rocket 4.3 11:07:31 10° N 11:13:40 83° W 11:19:51 10° S
Cosmos 1633 Rocket 2.8 11:09:31 10° S 11:13:49 85° W 11:18:09 10° N
Cosmos 540 Rocket 3.3 11:13:20 32° NNW 11:15:43 84° WSW 11:20:49 10° SSE
SL-8 Rocket 4.1 11:14:47 10° S 11:21:04 78° E 11:27:19 10° N
Meteor 1-15 Rocket 4.5 11:15:18 10° S 11:21:07 76° E 11:27:01 10° NNE
COSMO-SKYMED 1 3.4 11:17:13 10° SSE 11:21:09 47° ENE 11:25:06 10° N
Cosmos 1707 Rocket 3.4 11:18:30 20° N 11:21:26 87° W 11:25:49 10° S
Cosmos 1954 Rocket 3.8 11:21:11 10° SSW 11:26:17 70° WNW 11:31:26 10° NNE
Cosmos 2341 Rocket 4.1 11:20:06 10° S 11:26:29 84° E 11:32:53 10° N
IRS-1D 3.5 11:21:43 10° N 11:26:58 63° WNW 11:32:07 10° SSW
Cosmos 1763 Rocket 3.5 11:25:52 36° NW 11:27:37 53° WSW 11:32:34 10° S
Cosmos 1953 1.9 11:24:56 10° S 11:28:35 89° WNW 11:32:16 10° N
COSMOS 2406 3.2 11:28:14 21° NNW 11:32:08 65° WSW 11:37:48 10° S
Meteor 2-19 Rocket 4.3 11:27:04 10° N 11:33:08 85° W 11:39:11 10° S
Cosmos 1666 Rocket 4.1 11:34:06 35° NW 11:34:06 35° NW 11:37:26 10° N
Cosmos 2251 Rocket 3.8 11:30:50 21° SW 11:33:56 42° WNW 11:38:59 10° N
USA 215 4.3 11:32:58 10° S 11:37:58 23° WSW 11:39:26 21° WSW
Meteor 1-24 Rocket 4.0 11:32:16 10° N 11:38:16 78° E 11:44:06 10° SSE
BREEZE-M DEB (TANK) 4.4 11:38:17 27° NW 11:41:05 83° SW 11:58:38 10° SE
Helios 1A Rocket 4.2 11:40:46 10° SE 11:43:46 32° ENE 11:46:47 10° N
BREEZE-M DEB (TANK) 3.7 11:44:33 24° W 11:46:40 31° WSW 11:49:31 10° S
Cosmos 1821 Rocket 4.3 11:42:11 10° S 11:48:30 74° E 11:54:47 10° N
Cosmos 332 Rocket 4.2 11:44:22 10° S 11:49:01 64° ESE 11:53:43 10° NNE
Okean 1-7 3.5 11:51:38 14° NNW 11:54:48 36° W 11:58:38 10° SSW
IGS 5A 3.2 11:50:50 10° N 11:54:48 77° WNW 11:58:45 10° SSW
